PRIVATE WETTERSTATION BILLIGHEIM-ALLFELD                       ZURCK
Wetterdaten: Donnerstag, 05.10.2017
Datum Zeit Temp. A. Temp. A. min Temp. A. max Feuchte A. Luftdruck Regen Wind Richtung Richtung Sonnenschein ET Solar Taupunkt Windchill Windben Empfang
05.10.2017 00:00 11,1 C 11,1 C 11,1 C 84 % 1021,0 hPa 0,0 l/m 1,6 km/h (1 Bft) W 270 0 min 0,025 mm 0 W/m 8,5 C 11,1 C 9,7 km/h (2 Bft) 100 %
05.10.2017 00:10 11,1 C 11,1 C 11,1 C 84 % 1021,1 hPa 0,0 l/m 1,6 km/h (1 Bft) W 270 0 min 0,000 mm 0 W/m 8,5 C 11,1 C 9,7 km/h (2 Bft) 99 %
05.10.2017 00:20 11,1 C 11,1 C 11,1 C 84 % 1020,9 hPa 0,0 l/m 1,6 km/h (1 Bft) W-SW 247 0 min 0,000 mm 0 W/m 8,5 C 11,1 C 8,0 km/h (2 Bft) 100 %
05.10.2017 00:30 11,1 C 11,1 C 11,1 C 84 % 1020,8 hPa 0,0 l/m 1,6 km/h (1 Bft) W-SW 247 0 min 0,000 mm 0 W/m 8,5 C 11,1 C 8,0 km/h (2 Bft) 100 %
05.10.2017 00:40 11,1 C 11,1 C 11,1 C 84 % 1020,7 hPa 0,0 l/m 4,8 km/h (1 Bft) S-SW 202 0 min 0,000 mm 0 W/m 8,5 C 11,1 C 16,1 km/h (3 Bft) 100 %
05.10.2017 00:50 11,0 C 11,0 C 11,1 C 84 % 1020,5 hPa 0,0 l/m 1,6 km/h (1 Bft) SW 225 0 min 0,000 mm 0 W/m 8,4 C 11,0 C 9,7 km/h (2 Bft) 100 %
05.10.2017 01:00 10,9 C 10,9 C 11,0 C 85 % 1020,4 hPa 0,0 l/m 4,8 km/h (1 Bft) SW 225 0 min 0,025 mm 0 W/m 8,5 C 10,9 C 12,9 km/h (3 Bft) 100 %
05.10.2017 01:10 10,9 C 10,9 C 10,9 C 85 % 1020,4 hPa 0,0 l/m 4,8 km/h (1 Bft) S-SW 202 0 min 0,000 mm 0 W/m 8,5 C 10,9 C 11,3 km/h (2 Bft) 100 %
05.10.2017 01:20 10,9 C 10,9 C 10,9 C 85 % 1020,2 hPa 0,0 l/m 3,2 km/h (1 Bft) W-SW 247 0 min 0,000 mm 0 W/m 8,5 C 10,9 C 16,1 km/h (3 Bft) 100 %
05.10.2017 01:30 10,9 C 10,9 C 10,9 C 86 % 1020,0 hPa 0,0 l/m 3,2 km/h (1 Bft) SW 225 0 min 0,000 mm 0 W/m 8,7 C 10,9 C 16,1 km/h (3 Bft) 100 %
05.10.2017 01:40 11,0 C 10,9 C 11,0 C 86 % 1019,9 hPa 0,0 l/m 4,8 km/h (1 Bft) SW 225 0 min 0,000 mm 0 W/m 8,7 C 11,0 C 16,1 km/h (3 Bft) 100 %
05.10.2017 01:50 11,1 C 11,0 C 11,1 C 85 % 1019,9 hPa 0,0 l/m 6,4 km/h (2 Bft) SW 225 0 min 0,000 mm 0 W/m 8,7 C 11,1 C 24,1 km/h (4 Bft) 100 %
05.10.2017 02:00 11,0 C 11,0 C 11,1 C 85 % 1019,7 hPa 0,0 l/m 4,8 km/h (1 Bft) S-SW 202 0 min 0,025 mm 0 W/m 8,6 C 11,0 C 12,9 km/h (3 Bft) 100 %
05.10.2017 02:10 11,1 C 11,0 C 11,1 C 85 % 1019,6 hPa 0,0 l/m 11,3 km/h (2 Bft) S-SW 202 0 min 0,000 mm 0 W/m 8,7 C 8,1 C 22,5 km/h (4 Bft) 100 %
05.10.2017 02:20 11,1 C 11,0 C 11,1 C 85 % 1019,5 hPa 0,0 l/m 11,3 km/h (2 Bft) SW 225 0 min 0,000 mm 0 W/m 8,7 C 8,1 C 24,1 km/h (4 Bft) 100 %
05.10.2017 02:30 11,1 C 11,1 C 11,1 C 85 % 1019,6 hPa 0,0 l/m 9,7 km/h (2 Bft) SW 225 0 min 0,000 mm 0 W/m 8,7 C 9,0 C 24,1 km/h (4 Bft) 100 %
05.10.2017 02:40 11,1 C 11,0 C 11,1 C 85 % 1019,5 hPa 0,0 l/m 9,7 km/h (2 Bft) W-SW 247 0 min 0,000 mm 0 W/m 8,7 C 9,0 C 22,5 km/h (4 Bft) 100 %
05.10.2017 02:50 11,1 C 11,1 C 11,1 C 85 % 1019,2 hPa 0,0 l/m 9,7 km/h (2 Bft) W-SW 247 0 min 0,000 mm 0 W/m 8,7 C 9,0 C 24,1 km/h (4 Bft) 100 %
05.10.2017 03:00 11,2 C 11,1 C 11,2 C 84 % 1019,1 hPa 0,0 l/m 12,9 km/h (3 Bft) W-SW 247 0 min 0,025 mm 0 W/m 8,6 C 7,5 C 33,8 km/h (5 Bft) 100 %
05.10.2017 03:10 11,3 C 11,2 C 11,3 C 84 % 1018,9 hPa 0,0 l/m 11,3 km/h (2 Bft) W-SW 247 0 min 0,000 mm 0 W/m 8,7 C 8,4 C 27,4 km/h (4 Bft) 100 %
05.10.2017 03:20 11,3 C 11,3 C 11,3 C 84 % 1018,5 hPa 0,0 l/m 11,3 km/h (2 Bft) W-SW 247 0 min 0,000 mm 0 W/m 8,7 C 8,4 C 30,6 km/h (5 Bft) 100 %
05.10.2017 03:30 11,3 C 11,3 C 11,3 C 83 % 1018,3 hPa 0,0 l/m 11,3 km/h (2 Bft) SW 225 0 min 0,000 mm 0 W/m 8,5 C 8,4 C 24,1 km/h (4 Bft) 100 %
05.10.2017 03:40 11,2 C 11,2 C 11,3 C 84 % 1018,1 hPa 0,0 l/m 11,3 km/h (2 Bft) SW 225 0 min 0,000 mm 0 W/m 8,6 C 8,2 C 24,1 km/h (4 Bft) 100 %
05.10.2017 03:50 11,1 C 11,1 C 11,2 C 84 % 1017,9 hPa 0,0 l/m 11,3 km/h (2 Bft) SW 225 0 min 0,000 mm 0 W/m 8,5 C 8,1 C 29,0 km/h (5 Bft) 100 %
05.10.2017 04:00 11,1 C 11,1 C 11,1 C 84 % 1017,8 hPa 0,0 l/m 9,7 km/h (2 Bft) SW 225 0 min 0,025 mm 0 W/m 8,5 C 9,0 C 20,9 km/h (4 Bft) 100 %
05.10.2017 04:10 11,0 C 11,0 C 11,1 C 84 % 1017,7 hPa 0,0 l/m 9,7 km/h (2 Bft) SW 225 0 min 0,000 mm 0 W/m 8,4 C 8,9 C 22,5 km/h (4 Bft) 100 %
05.10.2017 04:20 10,9 C 10,9 C 11,0 C 84 % 1017,5 hPa 0,0 l/m 12,9 km/h (3 Bft) SW 225 0 min 0,000 mm 0 W/m 8,3 C 7,1 C 30,6 km/h (5 Bft) 100 %
05.10.2017 04:30 10,9 C 10,9 C 10,9 C 84 % 1017,5 hPa 0,0 l/m 12,9 km/h (3 Bft) SW 225 0 min 0,000 mm 0 W/m 8,3 C 7,1 C 27,4 km/h (4 Bft) 100 %
05.10.2017 04:40 10,9 C 10,9 C 10,9 C 84 % 1017,4 hPa 0,0 l/m 9,7 km/h (2 Bft) W-SW 247 0 min 0,000 mm 0 W/m 8,3 C 8,8 C 20,9 km/h (4 Bft) 100 %
05.10.2017 04:50 10,9 C 10,8 C 10,9 C 84 % 1017,1 hPa 0,0 l/m 12,9 km/h (3 Bft) SW 225 0 min 0,000 mm 0 W/m 8,3 C 7,1 C 30,6 km/h (5 Bft) 100 %
05.10.2017 05:00 11,0 C 10,9 C 11,0 C 84 % 1016,8 hPa 0,0 l/m 14,5 km/h (3 Bft) SW 225 0 min 0,025 mm 0 W/m 8,4 C 6,5 C 29,0 km/h (5 Bft) 100 %
05.10.2017 05:10 10,9 C 10,9 C 11,0 C 84 % 1016,8 hPa 0,0 l/m 11,3 km/h (2 Bft) SW 225 0 min 0,000 mm 0 W/m 8,3 C 7,9 C 27,4 km/h (4 Bft) 100 %
05.10.2017 05:20 10,9 C 10,9 C 10,9 C 84 % 1016,5 hPa 0,0 l/m 12,9 km/h (3 Bft) SW 225 0 min 0,000 mm 0 W/m 8,3 C 7,1 C 25,7 km/h (4 Bft) 100 %
05.10.2017 05:30 10,9 C 10,8 C 10,9 C 84 % 1016,2 hPa 0,0 l/m 12,9 km/h (3 Bft) SW 225 0 min 0,000 mm 0 W/m 8,3 C 7,1 C 27,4 km/h (4 Bft) 100 %
05.10.2017 05:40 10,9 C 10,9 C 10,9 C 84 % 1015,9 hPa 0,0 l/m 14,5 km/h (3 Bft) SW 225 0 min 0,000 mm 0 W/m 8,3 C 6,4 C 27,4 km/h (4 Bft) 100 %
05.10.2017 05:50 10,9 C 10,8 C 10,9 C 84 % 1015,7 hPa 0,0 l/m 9,7 km/h (2 Bft) W-SW 247 0 min 0,000 mm 0 W/m 8,3 C 8,8 C 24,1 km/h (4 Bft) 100 %
05.10.2017 06:00 10,8 C 10,8 C 10,8 C 85 % 1015,6 hPa 0,0 l/m 9,7 km/h (2 Bft) SW 225 0 min 0,025 mm 0 W/m 8,4 C 8,6 C 19,3 km/h (3 Bft) 100 %
05.10.2017 06:10 10,8 C 10,7 C 10,8 C 85 % 1015,4 hPa 0,0 l/m 8,0 km/h (2 Bft) SW 225 0 min 0,000 mm 0 W/m 8,4 C 9,7 C 20,9 km/h (4 Bft) 100 %
05.10.2017 06:20 10,8 C 10,7 C 10,8 C 85 % 1015,2 hPa 0,0 l/m 11,3 km/h (2 Bft) SW 225 0 min 0,000 mm 0 W/m 8,4 C 7,8 C 22,5 km/h (4 Bft) 100 %
05.10.2017 06:30 10,7 C 10,7 C 10,8 C 84 % 1015,2 hPa 0,0 l/m 9,7 km/h (2 Bft) SW 225 0 min 0,000 mm 0 W/m 8,1 C 8,5 C 25,7 km/h (4 Bft) 100 %
05.10.2017 06:40 10,8 C 10,7 C 10,8 C 84 % 1015,1 hPa 0,0 l/m 9,7 km/h (2 Bft) SW 225 0 min 0,000 mm 0 W/m 8,2 C 8,6 C 24,1 km/h (4 Bft) 90 %
05.10.2017 06:50 10,7 C 10,7 C 10,8 C 84 % 1015,0 hPa 0,0 l/m 11,3 km/h (2 Bft) SW 225 0 min 0,000 mm 0 W/m 8,1 C 7,7 C 25,7 km/h (4 Bft) 100 %
05.10.2017 07:00 10,8 C 10,7 C 10,8 C 84 % 1014,9 hPa 0,0 l/m 14,5 km/h (3 Bft) SW 225 0 min 0,025 mm 0 W/m 8,2 C 6,3 C 38,6 km/h (5 Bft) 100 %
05.10.2017 07:10 10,9 C 10,8 C 10,9 C 83 % 1014,9 hPa 0,0 l/m 16,1 km/h (3 Bft) SW 225 0 min 0,000 mm 0 W/m 8,1 C 5,8 C 35,4 km/h (5 Bft) 100 %
05.10.2017 07:20 10,9 C 10,9 C 10,9 C 83 % 1015,1 hPa 0,0 l/m 11,3 km/h (2 Bft) W-SW 247 0 min 0,000 mm 0 W/m 8,1 C 7,9 C 30,6 km/h (5 Bft) 100 %
05.10.2017 07:30 11,0 C 10,9 C 11,0 C 83 % 1014,8 hPa 0,0 l/m 14,5 km/h (3 Bft) SW 225 0 min 0,000 mm 0 W/m 8,2 C 6,5 C 35,4 km/h (5 Bft) 100 %
05.10.2017 07:40 10,9 C 10,9 C 11,0 C 83 % 1014,8 hPa 0,0 l/m 9,7 km/h (2 Bft) W-SW 247 0 min 0,000 mm 5 W/m 8,1 C 8,8 C 29,0 km/h (5 Bft) 100 %
05.10.2017 07:50 11,0 C 10,9 C 11,0 C 83 % 1014,7 hPa 0,0 l/m 9,7 km/h (2 Bft) W-SW 247 0 min 0,000 mm 9 W/m 8,2 C 8,9 C 32,2 km/h (5 Bft) 100 %
05.10.2017 08:00 11,1 C 11,0 C 11,1 C 82 % 1014,3 hPa 0,0 l/m 16,1 km/h (3 Bft) SW 225 0 min 0,025 mm 12 W/m 8,1 C 6,0 C 33,8 km/h (5 Bft) 100 %
05.10.2017 08:10 11,2 C 11,1 C 11,2 C 82 % 1014,3 hPa 0,0 l/m 16,1 km/h (3 Bft) SW 225 0 min 0,000 mm 16 W/m 8,2 C 6,2 C 33,8 km/h (5 Bft) 100 %
05.10.2017 08:20 11,3 C 11,2 C 11,3 C 82 % 1014,1 hPa 0,0 l/m 14,5 km/h (3 Bft) SW 225 0 min 0,000 mm 21 W/m 8,3 C 6,9 C 30,6 km/h (5 Bft) 100 %
05.10.2017 08:30 11,4 C 11,3 C 11,4 C 82 % 1014,3 hPa 0,0 l/m 11,3 km/h (2 Bft) W-SW 247 0 min 0,000 mm 26 W/m 8,4 C 8,5 C 25,7 km/h (4 Bft) 100 %
05.10.2017 08:40 11,4 C 11,4 C 11,4 C 82 % 1014,2 hPa 0,0 l/m 11,3 km/h (2 Bft) W 270 0 min 0,000 mm 56 W/m 8,4 C 8,5 C 27,4 km/h (4 Bft) 100 %
05.10.2017 08:50 11,8 C 11,4 C 11,8 C 81 % 1014,3 hPa 0,0 l/m 14,5 km/h (3 Bft) W-SW 247 0 min 0,000 mm 107 W/m 8,6 C 7,5 C 35,4 km/h (5 Bft) 100 %
05.10.2017 09:00 12,3 C 11,8 C 12,3 C 80 % 1014,2 hPa 0,0 l/m 11,3 km/h (2 Bft) W-SW 247 10 min 0,051 mm 211 W/m 8,9 C 9,5 C 33,8 km/h (5 Bft) 100 %
05.10.2017 09:10 12,9 C 12,3 C 12,9 C 78 % 1014,0 hPa 0,0 l/m 14,5 km/h (3 Bft) SW 225 10 min 0,000 mm 230 W/m 9,2 C 8,8 C 37,0 km/h (5 Bft) 100 %
05.10.2017 09:20 13,4 C 12,9 C 13,4 C 76 % 1014,0 hPa 0,0 l/m 16,1 km/h (3 Bft) SW 225 10 min 0,000 mm 257 W/m 9,3 C 8,9 C 40,2 km/h (6 Bft) 100 %
05.10.2017 09:30 13,7 C 13,4 C 13,7 C 75 % 1013,5 hPa 0,0 l/m 16,1 km/h (3 Bft) W-SW 247 10 min 0,000 mm 290 W/m 9,3 C 9,2 C 35,4 km/h (5 Bft) 100 %
05.10.2017 09:40 13,8 C 13,7 C 13,8 C 75 % 1013,4 hPa 0,0 l/m 19,3 km/h (3 Bft) W-SW 247 10 min 0,000 mm 316 W/m 9,4 C 8,4 C 56,3 km/h (7 Bft) 100 %
05.10.2017 09:50 14,0 C 13,8 C 14,0 C 74 % 1013,3 hPa 0,0 l/m 22,5 km/h (4 Bft) SW 225 10 min 0,000 mm 352 W/m 9,4 C 7,8 C 59,5 km/h (7 Bft) 100 %
05.10.2017 10:00 14,2 C 14,0 C 14,2 C 74 % 1013,4 hPa 0,0 l/m 19,3 km/h (3 Bft) SW 225 10 min 0,203 mm 380 W/m 9,6 C 8,9 C 46,7 km/h (6 Bft) 100 %
05.10.2017 10:10 14,5 C 14,2 C 14,5 C 72 % 1013,2 hPa 0,0 l/m 20,9 km/h (4 Bft) W-SW 247 10 min 0,000 mm 506 W/m 9,5 C 8,9 C 48,3 km/h (6 Bft) 100 %
05.10.2017 10:20 14,7 C 14,5 C 14,7 C 73 % 1013,2 hPa 0,0 l/m 19,3 km/h (3 Bft) W-SW 247 10 min 0,000 mm 499 W/m 9,9 C 9,5 C 45,1 km/h (6 Bft) 100 %
05.10.2017 10:30 15,2 C 14,7 C 15,2 C 72 % 1013,0 hPa 0,0 l/m 12,9 km/h (3 Bft) W-SW 247 10 min 0,000 mm 601 W/m 10,2 C 12,2 C 37,0 km/h (5 Bft) 100 %
05.10.2017 10:40 15,1 C 15,1 C 15,4 C 69 % 1013,1 hPa 0,0 l/m 16,1 km/h (3 Bft) W-SW 247 10 min 0,000 mm 603 W/m 9,5 C 11,0 C 35,4 km/h (5 Bft) 100 %
05.10.2017 10:50 15,1 C 15,1 C 15,1 C 67 % 1012,8 hPa 0,0 l/m 14,5 km/h (3 Bft) W 270 10 min 0,000 mm 677 W/m 9,0 C 11,5 C 37,0 km/h (5 Bft) 100 %
05.10.2017 11:00 15,1 C 15,1 C 15,1 C 66 % 1012,8 hPa 0,0 l/m 19,3 km/h (3 Bft) W-SW 247 10 min 0,279 mm 299 W/m 8,8 C 10,1 C 54,7 km/h (7 Bft) 100 %
05.10.2017 11:10 15,1 C 14,8 C 15,1 C 68 % 1012,5 hPa 0,0 l/m 22,5 km/h (4 Bft) W-SW 247 10 min 0,000 mm 763 W/m 9,2 C 9,3 C 45,1 km/h (6 Bft) 100 %
05.10.2017 11:20 15,6 C 15,1 C 15,6 C 64 % 1012,4 hPa 0,0 l/m 17,7 km/h (3 Bft) W-SW 247 10 min 0,000 mm 724 W/m 8,8 C 11,1 C 41,8 km/h (6 Bft) 100 %
05.10.2017 11:30 15,6 C 15,6 C 15,7 C 65 % 1012,0 hPa 0,0 l/m 20,9 km/h (4 Bft) SW 225 10 min 0,000 mm 557 W/m 9,0 C 10,3 C 45,1 km/h (6 Bft) 100 %
05.10.2017 11:40 15,9 C 15,6 C 15,9 C 63 % 1011,8 hPa 0,0 l/m 19,3 km/h (3 Bft) SW 225 10 min 0,000 mm 719 W/m 8,9 C 11,1 C 46,7 km/h (6 Bft) 100 %
05.10.2017 11:50 15,7 C 15,7 C 15,9 C 64 % 1012,0 hPa 0,0 l/m 16,1 km/h (3 Bft) W-SW 247 10 min 0,000 mm 596 W/m 8,9 C 11,7 C 41,8 km/h (6 Bft) 100 %
05.10.2017 12:00 15,7 C 15,6 C 15,7 C 62 % 1011,7 hPa 0,0 l/m 19,3 km/h (3 Bft) W-SW 247 10 min 0,330 mm 582 W/m 8,4 C 10,8 C 54,7 km/h (7 Bft) 100 %
05.10.2017 12:10 16,2 C 15,7 C 16,2 C 62 % 1011,6 hPa 0,0 l/m 16,1 km/h (3 Bft) W-SW 247 10 min 0,000 mm 737 W/m 8,9 C 12,3 C 38,6 km/h (5 Bft) 100 %
05.10.2017 12:20 16,2 C 16,2 C 16,3 C 61 % 1011,8 hPa 0,0 l/m 19,3 km/h (3 Bft) W 270 10 min 0,000 mm 469 W/m 8,7 C 11,5 C 53,1 km/h (7 Bft) 100 %
05.10.2017 12:30 15,9 C 15,9 C 16,2 C 62 % 1011,6 hPa 0,0 l/m 20,9 km/h (4 Bft) SW 225 10 min 0,000 mm 338 W/m 8,6 C 10,7 C 45,1 km/h (6 Bft) 100 %
05.10.2017 12:40 16,1 C 15,9 C 16,1 C 64 % 1011,5 hPa 0,0 l/m 22,5 km/h (4 Bft) SW 225 10 min 0,000 mm 591 W/m 9,3 C 10,6 C 45,1 km/h (6 Bft) 100 %
05.10.2017 12:50 16,0 C 16,0 C 16,2 C 63 % 1011,3 hPa 0,0 l/m 19,3 km/h (3 Bft) SW 225 10 min 0,000 mm 800 W/m 9,0 C 11,2 C 43,5 km/h (6 Bft) 100 %
05.10.2017 13:00 15,7 C 15,7 C 16,0 C 64 % 1011,1 hPa 0,0 l/m 19,3 km/h (3 Bft) SW 225 10 min 0,305 mm 229 W/m 8,9 C 10,8 C 43,5 km/h (6 Bft) 100 %
05.10.2017 13:10 15,6 C 15,6 C 15,7 C 65 % 1010,8 hPa 0,0 l/m 20,9 km/h (4 Bft) S-SW 202 10 min 0,000 mm 244 W/m 9,0 C 10,3 C 33,8 km/h (5 Bft) 100 %
05.10.2017 13:20 15,4 C 15,4 C 15,6 C 65 % 1011,1 hPa 0,0 l/m 14,5 km/h (3 Bft) SW 225 10 min 0,000 mm 153 W/m 8,9 C 11,8 C 30,6 km/h (5 Bft) 99 %
05.10.2017 13:30 15,3 C 15,3 C 15,4 C 63 % 1011,2 hPa 0,0 l/m 11,3 km/h (2 Bft) W-SW 247 0 min 0,000 mm 54 W/m 8,3 C 12,9 C 32,2 km/h (5 Bft) 100 %
05.10.2017 13:40 15,3 C 15,3 C 15,3 C 60 % 1011,1 hPa 0,0 l/m 8,0 km/h (2 Bft) W 270 0 min 0,000 mm 76 W/m 7,6 C 14,4 C 29,0 km/h (5 Bft) 100 %
05.10.2017 13:50 15,4 C 15,3 C 15,4 C 59 % 1011,1 hPa 0,0 l/m 14,5 km/h (3 Bft) W 270 0 min 0,000 mm 77 W/m 7,4 C 11,8 C 37,0 km/h (5 Bft) 100 %
05.10.2017 14:00 15,3 C 15,3 C 15,4 C 62 % 1011,1 hPa 0,0 l/m 14,5 km/h (3 Bft) W 270 0 min 0,102 mm 93 W/m 8,1 C 11,7 C 41,8 km/h (6 Bft) 100 %
05.10.2017 14:10 14,7 C 14,7 C 15,3 C 69 % 1010,9 hPa 0,0 l/m 17,7 km/h (3 Bft) W 270 0 min 0,000 mm 95 W/m 9,1 C 10,0 C 40,2 km/h (6 Bft) 99 %
05.10.2017 14:20 14,1 C 14,1 C 14,7 C 72 % 1010,9 hPa 0,0 l/m 11,3 km/h (2 Bft) W 270 0 min 0,000 mm 70 W/m 9,1 C 11,5 C 30,6 km/h (5 Bft) 100 %
05.10.2017 14:30 14,1 C 14,1 C 14,1 C 73 % 1010,8 hPa 0,0 l/m 16,1 km/h (3 Bft) W-SW 247 0 min 0,000 mm 81 W/m 9,3 C 9,7 C 41,8 km/h (6 Bft) 100 %
05.10.2017 14:40 14,2 C 14,1 C 14,2 C 73 % 1010,8 hPa 0,0 l/m 11,3 km/h (2 Bft) W 270 0 min 0,000 mm 63 W/m 9,4 C 11,6 C 25,7 km/h (4 Bft) 100 %
05.10.2017 14:50 14,2 C 14,1 C 14,2 C 74 % 1010,8 hPa 0,0 l/m 8,0 km/h (2 Bft) W 270 0 min 0,000 mm 46 W/m 9,6 C 13,3 C 25,7 km/h (4 Bft) 100 %
05.10.2017 15:00 14,2 C 14,1 C 14,2 C 75 % 1010,9 hPa 0,0 l/m 12,9 km/h (3 Bft) W 270 0 min 0,076 mm 62 W/m 9,8 C 11,0 C 35,4 km/h (5 Bft) 100 %
05.10.2017 15:10 14,2 C 14,1 C 14,2 C 75 % 1011,0 hPa 0,0 l/m 12,9 km/h (3 Bft) W-SW 247 0 min 0,000 mm 42 W/m 9,8 C 11,0 C 33,8 km/h (5 Bft) 100 %
05.10.2017 15:20 14,1 C 14,1 C 14,2 C 76 % 1010,8 hPa 0,0 l/m 14,5 km/h (3 Bft) W 270 0 min 0,000 mm 25 W/m 9,9 C 10,3 C 33,8 km/h (5 Bft) 100 %
05.10.2017 15:30 14,1 C 14,1 C 14,1 C 77 % 1010,8 hPa 0,0 l/m 14,5 km/h (3 Bft) W 270 0 min 0,000 mm 47 W/m 10,1 C 10,3 C 32,2 km/h (5 Bft) 100 %
05.10.2017 15:40 13,7 C 13,7 C 14,1 C 81 % 1011,0 hPa 0,2 l/m 16,1 km/h (3 Bft) W 270 0 min 0,000 mm 54 W/m 10,5 C 9,2 C 41,8 km/h (6 Bft) 100 %
05.10.2017 15:50 13,3 C 13,3 C 13,7 C 84 % 1010,9 hPa 0,2 l/m 16,1 km/h (3 Bft) W 270 0 min 0,000 mm 86 W/m 10,7 C 8,7 C 35,4 km/h (5 Bft) 100 %
05.10.2017 16:00 12,9 C 12,9 C 13,3 C 86 % 1011,1 hPa 0,2 l/m 14,5 km/h (3 Bft) W-SW 247 0 min 0,051 mm 51 W/m 10,6 C 8,8 C 35,4 km/h (5 Bft) 100 %
05.10.2017 16:10 12,7 C 12,7 C 12,9 C 87 % 1011,0 hPa 0,2 l/m 14,5 km/h (3 Bft) W 270 0 min 0,000 mm 56 W/m 10,6 C 8,6 C 40,2 km/h (6 Bft) 100 %
05.10.2017 16:20 12,5 C 12,5 C 12,7 C 88 % 1011,1 hPa 0,2 l/m 12,9 km/h (3 Bft) W 270 0 min 0,000 mm 79 W/m 10,6 C 9,0 C 29,0 km/h (5 Bft) 100 %
05.10.2017 16:30 12,3 C 12,3 C 12,5 C 89 % 1011,1 hPa 0,4 l/m 14,5 km/h (3 Bft) W 270 0 min 0,000 mm 74 W/m 10,5 C 8,1 C 32,2 km/h (5 Bft) 100 %
05.10.2017 16:40 12,2 C 12,2 C 12,3 C 89 % 1011,1 hPa 0,2 l/m 14,5 km/h (3 Bft) W 270 0 min 0,000 mm 65 W/m 10,4 C 8,0 C 40,2 km/h (6 Bft) 100 %
05.10.2017 16:50 12,1 C 12,1 C 12,2 C 89 % 1011,1 hPa 0,0 l/m 11,3 km/h (2 Bft) W 270 0 min 0,000 mm 77 W/m 10,3 C 9,3 C 37,0 km/h (5 Bft) 100 %
05.10.2017 17:00 12,1 C 12,1 C 12,1 C 89 % 1011,3 hPa 0,4 l/m 17,7 km/h (3 Bft) W-SW 247 0 min 0,051 mm 60 W/m 10,3 C 6,7 C 45,1 km/h (6 Bft) 100 %
05.10.2017 17:10 11,9 C 11,9 C 12,1 C 89 % 1011,3 hPa 0,2 l/m 16,1 km/h (3 Bft) W 270 0 min 0,000 mm 47 W/m 10,1 C 7,0 C 33,8 km/h (5 Bft) 100 %
05.10.2017 17:20 11,9 C 11,9 C 11,9 C 89 % 1011,6 hPa 0,2 l/m 14,5 km/h (3 Bft) W 270 0 min 0,000 mm 32 W/m 10,1 C 7,6 C 30,6 km/h (5 Bft) 100 %
05.10.2017 17:40 11,7 C 11,7 C 11,9 C 89 % 1011,8 hPa 1,4 l/m 12,9 km/h (3 Bft) W-NW 303 0 min 0,000 mm 0 W/m 9,9 C 8,1 C 29,0 km/h (5 Bft) 100 %
05.10.2017 17:50 11,7 C 11,7 C 11,8 C 89 % 1012,3 hPa 1,8 l/m 11,3 km/h (2 Bft) NW 307 0 min 0,000 mm 0 W/m 9,9 C 8,8 C 25,7 km/h (4 Bft) 100 %
05.10.2017 18:00 11,2 C 11,2 C 11,7 C 89 % 1012,3 hPa 1,2 l/m 20,7 km/h (4 Bft) NW 321 0 min 0,003 mm 12 W/m 9,5 C 4,6 C 41,8 km/h (6 Bft) 100 %
05.10.2017 18:10 10,8 C 10,8 C 11,2 C 89 % 1012,4 hPa 0,2 l/m 18,1 km/h (3 Bft) NW 309 0 min 0,000 mm 7 W/m 9,1 C 4,9 C 33,8 km/h (5 Bft) 100 %
05.10.2017 18:20 10,6 C 10,6 C 10,8 C 89 % 1012,3 hPa 0,2 l/m 11,5 km/h (2 Bft) NW 324 0 min 0,000 mm 5 W/m 8,9 C 7,5 C 22,5 km/h (4 Bft) 100 %
05.10.2017 18:30 10,4 C 10,4 C 10,6 C 89 % 1012,5 hPa 0,0 l/m 10,7 km/h (2 Bft) N-NW 327 0 min 0,000 mm 11 W/m 8,7 C 7,6 C 20,9 km/h (4 Bft) 100 %
05.10.2017 18:40 10,4 C 10,4 C 10,4 C 89 % 1012,8 hPa 0,2 l/m 5,3 km/h (1 Bft) W-NW 293 0 min 0,000 mm 0 W/m 8,7 C 10,4 C 16,1 km/h (3 Bft) 100 %
05.10.2017 18:50 10,3 C 10,3 C 10,4 C 89 % 1012,9 hPa 0,0 l/m 7,7 km/h (2 Bft) W-NW 302 0 min 0,000 mm 0 W/m 8,6 C 9,4 C 17,7 km/h (3 Bft) 100 %
05.10.2017 19:00 10,3 C 10,3 C 10,3 C 89 % 1012,9 hPa 0,2 l/m 7,1 km/h (2 Bft) W-NW 290 0 min 0,026 mm 0 W/m 8,6 C 9,8 C 16,1 km/h (3 Bft) 100 %
05.10.2017 19:10 10,3 C 10,3 C 10,3 C 89 % 1013,2 hPa 0,0 l/m 7,1 km/h (2 Bft) NW 321 0 min 0,000 mm 0 W/m 8,6 C 9,8 C 16,1 km/h (3 Bft) 100 %
05.10.2017 19:20 10,3 C 10,3 C 10,3 C 89 % 1013,2 hPa 0,0 l/m 7,0 km/h (2 Bft) W-NW 296 0 min 0,000 mm 0 W/m 8,6 C 9,9 C 16,1 km/h (3 Bft) 100 %
05.10.2017 19:30 10,3 C 10,3 C 10,3 C 89 % 1013,4 hPa 0,0 l/m 4,9 km/h (1 Bft) NW 307 0 min 0,000 mm 0 W/m 8,6 C 10,3 C 16,1 km/h (3 Bft) 100 %
05.10.2017 19:40 10,2 C 10,2 C 10,3 C 89 % 1013,6 hPa 0,0 l/m 5,6 km/h (1 Bft) N-NW 343 0 min 0,000 mm 0 W/m 8,5 C 10,2 C 16,1 km/h (3 Bft) 99 %
05.10.2017 19:50 10,1 C 10,1 C 10,2 C 89 % 1013,9 hPa 0,0 l/m 2,6 km/h (1 Bft) NW 322 0 min 0,000 mm 0 W/m 8,4 C 10,1 C 8,0 km/h (2 Bft) 91 %
05.10.2017 20:00 10,0 C 10,0 C 10,1 C 89 % 1014,0 hPa 0,0 l/m 3,1 km/h (1 Bft) W-NW 293 0 min 0,000 mm 0 W/m 8,3 C 10,0 C 9,7 km/h (2 Bft) 100 %
05.10.2017 20:10 9,8 C 9,8 C 10,0 C 89 % 1014,2 hPa 0,0 l/m 3,3 km/h (1 Bft) W-NW 298 0 min 0,000 mm 0 W/m 8,1 C 9,8 C 8,0 km/h (2 Bft) 100 %
05.10.2017 20:20 9,7 C 9,7 C 9,8 C 89 % 1014,2 hPa 0,0 l/m 0,1 km/h (0 Bft) W-NW 298 0 min 0,000 mm 0 W/m 8,0 C 9,7 C 4,8 km/h (1 Bft) 100 %
05.10.2017 20:30 9,6 C 9,6 C 9,7 C 89 % 1014,3 hPa 0,0 l/m 0,0 km/h (0 Bft) W-NW 298 0 min 0,000 mm 0 W/m 7,9 C 9,6 C 0,0 km/h (0 Bft) 100 %
05.10.2017 20:40 9,4 C 9,4 C 9,6 C 89 % 1014,6 hPa 0,0 l/m 0,0 km/h (0 Bft) W-NW 298 0 min 0,000 mm 0 W/m 7,7 C 9,4 C 0,0 km/h (0 Bft) 100 %
05.10.2017 20:50 9,3 C 9,3 C 9,4 C 89 % 1014,7 hPa 0,0 l/m 0,1 km/h (0 Bft) W-NW 293 0 min 0,000 mm 0 W/m 7,6 C 9,3 C 4,8 km/h (1 Bft) 100 %
05.10.2017 21:00 9,1 C 9,1 C 9,3 C 89 % 1014,8 hPa 0,0 l/m 0,5 km/h (0 Bft) W-NW 288 0 min 0,000 mm 0 W/m 7,4 C 9,1 C 4,8 km/h (1 Bft) 100 %
05.10.2017 21:10 8,9 C 8,9 C 9,1 C 89 % 1014,8 hPa 0,0 l/m 0,0 km/h (0 Bft) N 0 0 min 0,000 mm 0 W/m 7,2 C 8,9 C 0,0 km/h (0 Bft) 100 %
05.10.2017 21:20 8,8 C 8,8 C 8,9 C 89 % 1014,9 hPa 0,0 l/m 0,0 km/h (0 Bft) W-NW 292 0 min 0,000 mm 0 W/m 7,1 C 8,8 C 1,6 km/h (1 Bft) 100 %
05.10.2017 21:30 8,7 C 8,7 C 8,8 C 89 % 1015,2 hPa 0,0 l/m 0,0 km/h (0 Bft) N 0 0 min 0,000 mm 0 W/m 7,0 C 8,7 C 0,0 km/h (0 Bft) 100 %
05.10.2017 21:40 8,7 C 8,7 C 8,7 C 90 % 1015,4 hPa 0,0 l/m 0,0 km/h (0 Bft) W-NW 292 0 min 0,000 mm 0 W/m 7,2 C 8,7 C 4,8 km/h (1 Bft) 100 %
05.10.2017 21:50 8,6 C 8,6 C 8,7 C 90 % 1015,5 hPa 0,0 l/m 1,6 km/h (1 Bft) W-NW 292 0 min 0,000 mm 0 W/m 7,1 C 8,6 C 8,0 km/h (2 Bft) 100 %
05.10.2017 22:00 8,6 C 8,6 C 8,7 C 90 % 1015,5 hPa 0,0 l/m 1,6 km/h (1 Bft) W-NW 292 0 min 0,000 mm 0 W/m 7,1 C 8,6 C 6,4 km/h (2 Bft) 100 %
05.10.2017 22:10 8,5 C 8,5 C 8,6 C 90 % 1015,6 hPa 0,0 l/m 0,0 km/h (0 Bft) W-NW 292 0 min 0,000 mm 0 W/m 7,0 C 8,5 C 3,2 km/h (1 Bft) 100 %
05.10.2017 22:20 8,2 C 8,2 C 8,5 C 90 % 1015,8 hPa 0,0 l/m 0,0 km/h (0 Bft) N 0 0 min 0,000 mm 0 W/m 6,7 C 8,2 C 0,0 km/h (0 Bft) 99 %
05.10.2017 22:30 8,2 C 8,1 C 8,2 C 89 % 1015,9 hPa 0,0 l/m 0,0 km/h (0 Bft) N 0 0 min 0,000 mm 0 W/m 6,5 C 8,2 C 0,0 km/h (0 Bft) 100 %
05.10.2017 22:40 8,1 C 8,1 C 8,2 C 89 % 1015,8 hPa 0,0 l/m 0,0 km/h (0 Bft) N 0 0 min 0,000 mm 0 W/m 6,4 C 8,1 C 0,0 km/h (0 Bft) 100 %
05.10.2017 22:50 8,0 C 8,0 C 8,1 C 90 % 1015,8 hPa 0,0 l/m 0,0 km/h (0 Bft) N 0 0 min 0,000 mm 0 W/m 6,5 C 8,0 C 0,0 km/h (0 Bft) 100 %
05.10.2017 23:00 7,9 C 7,9 C 8,1 C 90 % 1015,9 hPa 0,0 l/m 0,0 km/h (0 Bft) W-NW 292 0 min 0,000 mm 0 W/m 6,4 C 7,9 C 3,2 km/h (1 Bft) 100 %
05.10.2017 23:10 7,9 C 7,9 C 7,9 C 90 % 1015,9 hPa 0,0 l/m 0,0 km/h (0 Bft) N 0 0 min 0,000 mm 0 W/m 6,4 C 7,9 C 0,0 km/h (0 Bft) 100 %
05.10.2017 23:20 7,8 C 7,8 C 7,9 C 90 % 1016,1 hPa 0,0 l/m 0,0 km/h (0 Bft) N 0 0 min 0,000 mm 0 W/m 6,3 C 7,8 C 0,0 km/h (0 Bft) 89 %
05.10.2017 23:30 7,7 C 7,7 C 7,8 C 90 % 1016,0 hPa 0,0 l/m 0,0 km/h (0 Bft) W-SW 247 0 min 0,000 mm 0 W/m 6,2 C 7,7 C 4,8 km/h (1 Bft) 100 %
05.10.2017 23:40 7,5 C 7,5 C 7,7 C 90 % 1016,2 hPa 0,0 l/m 1,6 km/h (1 Bft) W-SW 247 0 min 0,000 mm 0 W/m 6,0 C 7,5 C 4,8 km/h (1 Bft) 100 %
05.10.2017 23:50 7,4 C 7,4 C 7,5 C 90 % 1016,3 hPa 0,0 l/m 0,0 km/h (0 Bft) W-SW 247 0 min 0,000 mm 0 W/m 5,9 C 7,4 C 6,4 km/h (2 Bft) 100 %
_ Min-Zeit 23:50 23:50 23:50 13:50 13:10 - 20:30 - - - - - 23:50 18:00 20:30 23:20
Minimum _ 7,4 C 7,4 C 7,5 C 59 % 1010,8 hPa - 0,0 km/h (0 Bft) - - - - - 5,9 C 4,6 C 0,0 km/h (0 Bft) 89 %
_ Max-Zeit 12:20 12:20 12:20 21:40 00:10 17:50 09:50 - - 09:00 12:00 12:50 15:50 13:40 09:50 00:00
Maximum _ 16,3 C 16,2 C 16,3 C 90 % 1021,1 hPa 1,8 l/m 22,5 km/h
SW (4 Bft)
- - 10 min 0,330 mm 800 W/m 10,7 C 14,4 C 59,5 km/h
SW (7 Bft)
100 %
Durchschnitt _ 11,8 C 11,7 C 11,8 C 81 % 1014,6 hPa #7,6 l/m 10,4 km/h (2 Bft) SW - #4:30 h #1,702 mm 231 W/m 8,6 C 9,2 C 25,8 km/h (4 Bft) 100 %
PRIVATE WETTERSTATION BILLIGHEIM-ALLFELD - www.neckar-odenwald-wetter.de - Holger Sonntag